Regional Weather Roundup
Issued by NWS

Home | Current Version | Previous Version | Graphics & Text | Print | Product List | Glossary On
Versions: 1 2 3 4 5 6 7 8 9 10 11 12 13 14 15 16 17 18 19 20 21 22 23 24 25 26 27 28 29 30 31 32 33 34 35 36 37 38 39 40 41 42 43 44 45 46 47 48 49 50
000
ASUS45 KPSR 190100
RWRAZ

PRELIMINARY ARIZONA REGIONAL HOURLY WEATHER ROUNDUP
NATIONAL WEATHER SERVICE PHOENIX AZ
600 PM MST FRI APR 18 2014

NOTE: FAIR INDICATES FEW OR NO CLOUDS BELOW 12,000 FEET WITH NO
SIGNIFICANT WEATHER AND/OR OBSTRUCTIONS TO VISIBILITY.

AZZ001>003-036-190200-
NORTHWEST ARIZONA

CITY           SKY/WX    TMP DP  RH WIND       PRES   REMARKS
KINGMAN        CLOUDY    71  26  18 SE16G24   29.91S
$$

AZZ004>008-015-016-018-190200-
NORTH CENTRAL ARIZONA

CITY           SKY/WX    TMP DP  RH WIND       PRES   REMARKS
GRAND CANYON   CLOUDY    53  32  44 S14       30.09S
WILLIAMS       CLOUDY    48  37  66 SE14      30.17R
PRESCOTT       CLOUDY    55  41  59 S9        30.05S
FLAGSTAFF      LGT RAIN  46  37  71 S9        30.12S
PAYSON         CLOUDY    57  36  44 E6        30.08S
PAGE           CLOUDY    71  26  18 S14       29.94F
$$

AZZ009>014-017-190200-
NORTHEAST ARIZONA

CITY           SKY/WX    TMP DP  RH WIND       PRES   REMARKS
WINSLOW        NOT AVBL
SAINT JOHNS    LGT RAIN  57  35  43 W10       30.12R
WINDOW ROCK    CLOUDY    59  31  34 W22G30    30.12R
SHOW LOW       CLOUDY    50  34  53 S17       30.17S
$$

AZZ023-190200-
GREATER PHOENIX AREA

CITY           SKY/WX    TMP DP  RH WIND       PRES   REMARKS
PHOENIX        CLOUDY    81  38  21 E13       29.83F
GLENDALE       CLOUDY    79  43  27 VRB5      29.85F
LUKE AFB       NOT AVBL
DEER VALLEY    CLOUDY    77  38  24 VRB5      29.86F
SCOTTSDALE     CLOUDY    78  38  23 E6        29.87F
MESA-FALCON    PTSUNNY   77  37  24 NE7       29.86F
MESA-GATEWAY   PTSUNNY   79  34  19 SE12      29.88F
CHANDLER       PTSUNNY   77  43  29 NE10      29.85F
$$

AZZ027-028-190200-
SOUTHWEST MARICOPA COUNTY AND PINAL COUNTY

CITY           SKY/WX    TMP DP  RH WIND       PRES   REMARKS
CASA GRANDE    CLOUDY    81  36  19 NE15      29.85F
$$

AZZ503-504-507>509-190200-
SOUTHEAST ARIZONA

CITY           SKY/WX    TMP DP  RH WIND       PRES   REMARKS
TUCSON         PTSUNNY   73  42  32 E17       29.93F
DAVIS-MONTHAN  PTSUNNY   73  41  31 E14       29.91F
RYAN FIELD       N/A     73  43  33 E17G28    29.91F
NOGALES        PTSUNNY   67  42  40 N7        29.96F
SIERRA VISTA   PTSUNNY   63  45  51 CALM      30.03F
SAFFORD        CLOUDY    68  41  37 W12       30.00R
$$

AZZ020-021-025-026-031-190200-
SOUTHWEST ARIZONA

CITY           SKY/WX    TMP DP  RH WIND       PRES   REMARKS
YUMA           NOT AVBL
$$

CAZ031-033-041-043-047-048-061-190200-
SOUTHERN CALIFORNIA

CITY           SKY/WX    TMP DP  RH WIND       PRES   REMARKS
DOWNTOWN L.A.  SUNNY     67  52  58 CALM      29.88S
L.A. AIRPORT   PTSUNNY   64  54  69 W13       29.89S
SAN DIEGO      PTSUNNY   66  51  58 W8        29.91R
BURBANK        SUNNY     67  50  54 S8        29.87S
ONTARIO        PTSUNNY   71  52  50 W14G20    29.86R
RIVERSIDE      MOSUNNY   70  52  52 W13G18    29.86R
PALM SPRINGS   PTSUNNY   76  46  34 S17       29.81S
EL CENTRO NAS  CLOUDY    80  54  40 E6        29.75F
IMPERIAL       CLOUDY    80  56  43 E10       29.75F
BLYTHE         CLOUDY    76  48  37 SE20      29.82R
$$

NVZ020-UTZ003-190200-
SOUTHERN NEVADA-UTAH

CITY           SKY/WX    TMP DP  RH WIND       PRES   REMARKS
LAS VEGAS      NOT AVBL
SALT LAKE CITY PTSUNNY   61  41  47 NW8       29.92F
$$

NMZ009-TXZ055-190200-
NEW MEXICO-WEST TEXAS

CITY           SKY/WX    TMP DP  RH WIND       PRES   REMARKS
ALBUQUERQUE    CLOUDY    73  20  13 S25G33    30.00S
EL PASO        LGT RAIN  77  36  22 S13G30    29.98R
$$


........................KEY........................
SKY/WX - SKY CONDITION/WEATHER
TMP    - TEMPERATURE IN FAHRENHEIT
DP     - DEW POINT IN FAHRENHEIT
RH     - RELATIVE HUMIDITY IN PERCENT
WIND   - DIRECTION AND SPEED IN MILES PER HOUR (MPH)
VRB    - VARIABLE WIND DIRECTION
PRES   - MEAN SEA LEVEL PRESSURE IN INCHES OF MERCURY
         F - FALLING PRESSURE   R - RISING PRESSURE
         S - STEADY PRESSURE
VSB    - VISIBILITY IN MILES
HX     - HEAT INDEX IN FAHRENHEIT
WCI    - WIND CHILL INDEX IN FAHRENHEIT
TC     - TEMPERATURE IN CELSIUS WHICH IS ALSO KNOWN AS
         TEMPERATURE IN CENTIGRADE
AFB    - AIR FORCE BASE
         LUKE AFB IS LUKE AIR FORCE BASE
         DAVIS-MONTHAN IS DAVIS-MONTHAN AIR FORCE BASE
NAS    - NAVAL AIR STATION
         EL CENTRO NAS IS EL CENTRO NAVAL AIR STATION
N/A    - NOT AVAILABLE



USA.gov is the U.S. government's official web portal to all federal, state and local government web resources and services.